Regional Weather Roundup
Issued by NWS

Home | Current Version | Previous Version | Graphics & Text | Print | Product List | Glossary On
Versions: 1 2 3 4 5 6 7 8 9 10 11 12 13 14 15 16 17 18 19 20 21 22 23 24 25 26 27 28 29 30 31 32 33 34 35 36 37 38 39 40 41 42 43 44 45 46 47 48 49 50
739
ASUS45 KSLC 281310
RWRUT

UTAH REGIONAL WEATHER ROUNDUP
NATIONAL WEATHER SERVICE SALT LAKE CITY UT
700 AM MDT THU JUL 28 2016

UTZ001>011-023>025-281400-

NORTHERN UTAH

CITY           SKY/WX    TMP DP  RH WIND       PRES   REMARKS
BRIGHAM CITY     N/A     63  41  44 N3        30.09R
HILL AFB       PTCLDY    69  33  26 E16       30.11R
LOGAN          CLEAR     57  47  69 CALM      30.13R
OGDEN          PTCLDY    68  34  28 S8        30.09R
PROVO AIRPORT  CLEAR     63  37  39 CALM      30.12R
SALT LAKE CITY PTCLDY    76  39  26 CALM      30.07R
VERNAL         CLEAR     56  39  53 W3        30.17R
WENDOVER       PTCLDY    77  34  20 S3        30.09R
HEBER CITY     CLEAR     46  37  71 CALM      30.22R

$$

UTZ012>022-026-027-281400-

SOUTHERN/CENTRAL UTAH

CITY           SKY/WX    TMP DP  RH WIND       PRES   REMARKS
BLANDING       CLEAR     67  32  27 N9        30.29R
BRYCE CANYON   PTCLDY    52  32  46 W9        30.38R
CEDAR CITY     PTCLDY    69  36  29 S5        30.18R
DELTA          CLEAR     63  36  36 SE3       30.11R
MILFORD        CLEAR     65  28  24 SW8       30.12R
MOAB/CYNLANDS  CLEAR     68  25  19 CALM      30.08R
PRICE          CLEAR     65  22  19 CALM      30.20R
ST GEORGE      SUNNY     82  39  21 S3        29.96R

$$

REGIONAL REPORTS     COLORADO/ARIZONA

CITY           SKY/WX    TMP DP  RH WIND       PRES   REMARKS
CRAIG, CO      CLOUDY    46  34  62 VRB5      30.29R
GRAND JUNCTION CLEAR     68  34  28 S7        30.13R
RIFLE          CLEAR     56  34  43 N3        30.23R
MONTROSE       CLOUDY    65  35  33 SE12      30.23S
CORTEZ         CLEAR     55  40  56 CALM      30.25R
PAGE, AZ       PTCLDY    79  33  19 SE7       30.06R
GRAND CANYON   SMOKE     53  42  66 CALM      30.29R VSB 1/4
KINGMAN        MOCLDY    82  52  35 SE8       30.00R
FLAGSTAFF      CLEAR     55  47  74 CALM      30.32R

$$

REGIONAL REPORTS    NEVADA/IDAHO/WYOMING

CITY           SKY/WX    TMP DP  RH WIND       PRES   REMARKS
LAS VEGAS, NV  MOCLDY    93  44  18 CALM      29.81R
ELY            CLEAR     51  22  31 S13       30.27R
ELKO           PTCLDY    53  31  42 CALM      30.20R
POCATELLO, ID  CLEAR     54  39  57 W6        30.16R
BURLEY         CLEAR     55  50  83 CALM      30.13R
EVANSTON, WY   CLOUDY    62  25  24 CALM      30.32R
ROCK SPRINGS   CLOUDY    59  31  34 NE5       30.32R
KEMMERER         N/A     54  30  40 NW9       30.33R

$$




USA.gov is the U.S. government's official web portal to all federal, state and local government web resources and services.